Flag for U.S.A. Weather past 2 weeks in South Bend, Indiana, U.S.A.

Now
71 °F

Passing clouds.


Feels Like: 75 °F
Forecast: 65 / 75 °F
Wind: 20 mph from North

Location: Michiana Regional Airport

Current Time: Jul 23, 2014 at 5:58:40 PM

Latest Report: Jul 23, 2014 at 4:54 PM


Visibility: 10 mi

Pressure: 30.08 "Hg

Humidity: 63%

Dew point: 58 °F

Location of South BendLocation

Historic Weather in South Bend — Graph

°F

South Bend temperature yesterday

Maximum temperature yesterday: 84 °F (at 12:54 PM)
Minimum temperature yesterday: 67 °F (at 4:54 AM)
Average temperature yesterday: 75 °F

Past Weeks' High & Low Weather Summary

 TemperatureHumidityPressure
High85 °F (Jul 21, 3:54 PM)93% (Jul 13, 3:56 AM)30.23 "Hg (Jul 13, 3:56 AM)
Low51 °F (Jul 17, 3:54 AM)34% (Jul 17, 12:54 PM)29.73 "Hg (Jul 8, 4:54 PM)
Average69 °F67%30.03 "Hg
* Reported Jul 8 4:54 PM — Jul 23 4:54 PM, South Bend, Weather by CustomWeather, © 2014

Note: Actual official high and low records may vary slightly from our data, if they occured in-between our weather recording intervals... More about our weather records

Advertising

South Bend weather history for previous 24 hours

 ConditionsComfort  
Time TempWeatherWind HumidityBarometerVisibility
4:54 PM
Jul 23
71 °FPassing clouds.20 mph63%30.08 "Hg10 mi
3:54 PM73 °FPassing clouds.16 mph62%30.07 "Hg10 mi
2:54 PM74 °FPassing clouds.16 mph60%30.08 "Hg10 mi
1:54 PM74 °FPartly sunny.12 mph57%30.09 "Hg10 mi
12:54 PM70 °FOvercast.12 mph64%30.11 "Hg10 mi
11:54 AM67 °FOvercast.13 mph71%30.10 "Hg10 mi
10:54 AM67 °FOvercast.12 mph73%30.07 "Hg10 mi
9:54 AM66 °FOvercast.12 mph78%30.06 "Hg10 mi
9:01 AM65 °FPartly sunny.14 mph78%30.09 "Hg10 mi
7:56 AM64 °FMostly cloudy.18 mph81%30.05 "Hg10 mi
6:54 AM68 °FFog.17 mph90%30.02 "Hg6 mi
5:54 AM70 °FFog.12 mph90%29.99 "Hg6 mi
4:54 AM69 °FPassing clouds.7 mph90%29.96 "Hg10 mi
12:54 AM78 °FPassing clouds.9 mph76%29.96 "Hg10 mi
11:54 PM
Jul 22
79 °FPassing clouds.8 mph74%29.96 "Hg10 mi
10:54 PM80 °FPassing clouds.12 mph71%29.95 "Hg10 mi
9:54 PM82 °FMostly cloudy.12 mph65%29.96 "Hg10 mi
8:54 PM83 °FPartly sunny.12 mph63%29.95 "Hg10 mi
7:54 PM84 °FPartly sunny.13 mph61%29.97 "Hg10 mi
Weather by CustomWeather, © 2014

See weather overviewHow to use our weather pages